This is the latest recevied weather packets stored in our database for station/object LU8FJH-13. If no packets are shown the sender has not sent any weather packets the latest 10 day(s).
| Time | Temp. | Humidity | Pressure | Rain* | Wind** | Luminosity | Snow |
|---|---|---|---|---|---|---|---|
| 1777923959 | 25.56° C | 35% | 1009 hPa | 0 mm | - | - | - |
| 1777923419 | 26.11° C | 33% | 1008.8 hPa | 0 mm | - | - | - |
| 1777922878 | 26.11° C | 32% | 1009 hPa | 0 mm | - | - | - |
| 1777922339 | 26.11° C | 31% | 1009.1 hPa | 0 mm | - | - | - |
| 1777921799 | 25.56° C | 33% | 1009.3 hPa | 0 mm | - | - | - |
| 1777921259 | 26.11° C | 32% | 1009.2 hPa | 0 mm | - | - | - |
| 1777920719 | 26.11° C | 32% | 1009.3 hPa | 0 mm | - | - | - |
| 1777920178 | 25.56° C | 32% | 1009.2 hPa | 0 mm | - | - | - |
| 1777919638 | 26.11° C | 30% | 1009.2 hPa | 0 mm | - | - | - |
| 1777919099 | 26.11° C | 30% | 1009.5 hPa | 0 mm | - | - | - |
| 1777918559 | 25.56° C | 33% | 1009.5 hPa | 0 mm | - | - | - |
| 1777918019 | 26.11° C | 31% | 1009.7 hPa | 0 mm | - | - | - |
| 1777917478 | 26.11° C | 30% | 1009.9 hPa | 0 mm | - | - | - |
| 1777916939 | 26.11° C | 30% | 1010.1 hPa | 0 mm | - | - | - |
| 1777916399 | 25.56° C | 32% | 1010 hPa | 0 mm | - | - | - |
| 1777915858 | 26.11° C | 31% | 1010.2 hPa | 0 mm | - | - | - |
| 1777915319 | 26.11° C | 33% | 1010.2 hPa | 0 mm | - | - | - |
| 1777914779 | 25.56° C | 35% | 1010.5 hPa | 0 mm | - | - | - |
| 1777914239 | 25° C | 35% | 1010.6 hPa | 0 mm | - | - | - |
| 1777913699 | 25.56° C | 35% | 1010.6 hPa | 0 mm | - | - | - |
| 1777913158 | 26.11° C | 33% | 1011.1 hPa | 0 mm | - | - | - |
| 1777912618 | 25.56° C | 35% | 1011.2 hPa | 0 mm | - | - | - |
| 1777912078 | 25.56° C | 35% | 1011.4 hPa | 0 mm | - | - | - |
| 1777911538 | 25.56° C | 36% | 1011.6 hPa | 0 mm | - | - | - |
| 1777910999 | 25.56° C | 35% | 1011.7 hPa | 0 mm | - | - | - |
* Rain latest hour (hover to see other rain measurements)
** Current wind speed in m/s (hover to see current wind gust speed)